Время (UTC), дата Ветер
(°,м/с) 
Видим.   Явления Облачность Т
(°С)
Тd
(°С)
f(%) Тe
(°С)
Pmin
(гПа)
dP
(гПа)
Po
(мм)
O2
(г/м3)
Тmin Tmax R s Состояние
почвы
00 01.06.11 030 (СВ) 10 км    ясно 
+13.6 +5.8 59 +15  1021.3  755  289           
03 01.06.11 030 (СВ) >10 км    ясно 
+14.2 +6.3 59 +15  1021.9  0.6  756  288           
06 01.06.11 340 (С) >10 км    ясно 
+18 +5.2 43 +19  1021.4  -0.3  755  285  +13         
09 01.06.11 010 (С) 4{11}  >10 км    1/1 600 м 
[Cu hum]
+20.1 +2.9 32 +20  1020.3  -1  755  283           
12 01.06.11 010 (С) 4-11{12}  >10 км    1/1 600 м 
[Cu hum]
+22.2 +3.3 29 +22  1019.4  -0.8  754  281           
15 01.06.11 010 (С) 4{12}  >10 км    1/1 600 м 
[Cu hum]
+21.6 +2.6 29 +22  1019.3  -0.1  754  281           
18 01.06.11 030 (СВ) 3{10}  10 км    ясно 
+19 +3.9 37 +20  1019.7  0.2  754  284    +22.3       
21 01.06.11 020 (С) 10 км    ясно 
+15.8 +4.8 48 +17  1019.7  -0.1  754  287           
00 02.06.11 010 (С) 10 км    ясно 
+14.3 +2 43 +15  1019.8  754  288           
03 02.06.11 020 (С) >10 км    ясно 
+15.8 +5.9 52 +17  1019.6  -0.1  754  286           
06 02.06.11 350 (С) >10 км    ясно 
+18.8 +7.4 47 +20  1019  -0.5  754  283  +13.9         
09 02.06.11 010 (С) 4-10{10}  >10 км    ясно 
+23.9 +9.4 40 +24  1017.3  -1.4  753  277           
12 02.06.11 350 (С) 4{12}  >10 км    1/1 1000 м 
[Cu hum]
+25.2 +8.3 34 +25  1016  -1.1  752  276           
15 02.06.11 350 (С) 4{11}  >10 км    ясно 
+24.7 +7.2 33 +25  1015.5  -0.6  751  276           
18 02.06.11 350 (С) 10 км    1/0 верхняя 
[Ci fib]
+21.6 +8.3 42 +22  1015.8  0.2  752  279    +26.6       
21 02.06.11 тихо ()   10 км    ясно 
+17.8 +7.8 52 +18  1015.2  -0.8  751  283           
00 03.06.11 тихо ()   10 км    ясно 
+15.2 +6.6 56 +15  1014.4  -0.9  750  285           
03 03.06.11 320 (СЗ) >10 км    ясно 
+17 +8 55 +18  1013.9  -0.4  750  283           
06 03.06.11 280 (З) >10 км    3/0 верхняя 
[Ci fib]
+20.5 +10.4 52 +22  1012.6  -1.2  749  279  +14.8         
09 03.06.11 310 (СЗ) >10 км    8/3 600 м верхняя 
[Cu hum|Ci fib]
+25.3 +10.5 39 +27  1010.3  -2  748  274           
12 03.06.11 320 (СЗ) >10 км    8/0 верхняя 
[Ci fib]
+26.5 +8.8 33 +27  1008.1  -2.2  746  272           
15 03.06.11 280 (З) >10 км    8/0 верхняя 
[Ci fib]
+26.1 +8.1 32 +26  1006.4  -1.7  745  273           
18 03.06.11 260 (З) 10 км    3/0 средняя 
[Ac lent]
+19.4 +7 44 +21  1004.8  -1.8  743  278    +27.1       
21 03.06.11 290 (З) 10 км    3/0 средняя 
[Ac lent]
+18.6 +7.9 50 +20  1003.2  -1.7  742  279           
00 04.06.11 300 (СЗ) 10 км    9/0 средняя 
[Cu hum|Ac lent]
+16.9 +8.5 58 +18  1002.2  -1  741  280           
03 04.06.11 280 (З) 10 км    9/5 600 м кучево-дожд., средняя 
[Cb calv|Ac As]
+15.8 +10.3 70 +19  1001.2  -1  740  280           
06 04.06.11 330 (СЗ) >10 км    8/3 600 м средняя, верхняя 
[Cu med, cong|Ac cast|Ci fib]
+17.5 +12.1 71 +22  999.8  -1.3  740  278  +15.1         
09 04.06.11 340 (С) >10 км    8/5 600 м кучево-дожд., средняя, верхняя 
[Cb calv|Ac lent|Ci fib]
+20.1 +12.1 60 +24  999  -0.7  739  275           
12 04.06.11 310 (СЗ) >10 км  слаб. ливневой дождь, в посл. час гроза  10/6 600 м кучево-дожд., средняя 
[Cb cap|Ac inh]
+19.9 +10.1 53 +23  997.5  -1.5  738  275           
15 04.06.11 320 (СЗ) 2{10}  10 км  гроза, ливневой дождь  10/6 600 м кучево-дожд., средняя 
[Cb calv|Ac As]
+16.2 +13.2 82 +23  998.4  0.7  738  278           
18 04.06.11 010 (С) 10 км  в посл. час ливневой дождь{гроза}  10/10 600 м 
[Sc]
+15 +13.9 93 +23  998  -0.4  738  279    +21.1  12     
21 04.06.11 030 (СВ) 4000 м  в посл. час ливневой дождь  10/10 300 м 
[Frnb]
+15.3 +14.6 96 +25  996.9  -1.1  737  278           
00 05.06.11 030 (СВ) 10 км  {ливн. осадки}  10/10 200 м 
[Frnb]
+15.6 +14.4 93 +24  996.9  737  278           
03 05.06.11 010 (С) 10 км  слаб. дождь  10/10 300 м 
[Frnb]
+15 +13.9 93 +23  997.1  0.2  737  279           
06 05.06.11 020 (С) 10 км  слаб. дождь  10/10 300 м 
[Frnb|Ns]
+16.1 +14.5 90 +25  997.1  0.1  737  278  +14.1    21     
09 05.06.11 050 (СВ) 10 км  {дождь}  10/10 600 м 
[Sc]
+19.2 +14 72 +27  997.3  0.3  738  275           
12 05.06.11 010 (С) 10 км  в посл. час ливневой дождь  9/9 600 м 
[Sc diur, vesp]
+17.7 +13.9 78 +26  998.4  738  277           
15 05.06.11 350 (С) 10 км    9/8 600 м средняя 
[Sc|Ac cast]
+17.8 +12.2 70 +24  999.8  1.4  740  277           
18 05.06.11 360 (С) 10 км    10/10 600 м 
[Sc]
+16 +14.2 89 +24  1000.6  0.7  740  279    +20.2     
21 05.06.11 020 (С) 10 км    9/9 600 м 
[Sc]
+15.2 +14.3 94 +25  1001.6  0.9  741  280           
00 06.06.11 020 (С) 10 км    10/3 300 м средняя 
[Frnb|As op]
+14.8 +13.4 91 +21  1001.9  0.3  741  280           
03 06.06.11 020 (С) >10 км    6/6 600 м 
[Sc]
+15.7 +12.8 83 +21  1003.3  1.4  742  280           
06 06.06.11 030 (СВ) >10 км    8/8 600 м 
[Cu hum]
+16.8 +11.3 70 +20  1004.1  0.9  743  280  +15         
09 06.06.11 010 (С) >10 км    8/8 600 м 
[Cu hum]
+19.1 +10.8 59 +22  1004.6  0.6  743  278           
12 06.06.11 320 (СЗ) 2{10}  >10 км  {гроза, ливн. осадки}  10/10 600 м 
[Sc diur, vesp]
+16.8 +12.9 78 +23  1006.5  1.8  744  280           
15 06.06.11 350 (С) 3-10{10}  >10 км    10/10 600 м 
[Sc]
+14.2 +9.1 71 +14  1008.3  1.6  746  284           
18 06.06.11 340 (С) 4{11}  10 км    10/10 600 м 
[Sc]
+12.6 +7.7 72 +12  1009.8  1.4  747  286    +20.3     
21 06.06.11 360 (С) 10 км    10/10 600 м 
[Sc]
+11.1 +6.4 73 +11  1009.4  -0.4  746  288           
00 07.06.11 350 (С) 10 км    10/10 600 м 
[Sc]
+9.5 +6 79 +10  1009.1  -0.4  746  290           
03 07.06.11 340 (С) 10 км  в посл. час морось  10/10 300 м 
[St]
+8.5 +5.9 84 +9  1008.9  -0.3  746  290           
06 07.06.11 310 (СЗ) >10 км  {морось}  10/10 600 м 
[Sc]
+9.2 +6.2 81 +9  1009.3  0.5  746  290      0.0     
09 07.06.11 330 (СЗ) >10 км    10/10 600 м 
[Sc]
+11.2 +4.3 62 +11  1009.6  0.4  747  288           
12 07.06.11 320 (СЗ) >10 км    10/10 600 м 
[Sc]
+11.3 +4.7 64 +12  1010.1  0.5  747  288           
15 07.06.11 310 (СЗ) >10 км    10/10 600 м 
[Sc]
+11.6 +5.3 65 +12  1010.2  0.1  747  288           
18 07.06.11 310 (СЗ) 10 км  в посл. час дождь  10/10 600 м 
[Sc]
+11 +7 76 +12  1010.1  -0.1  747  288    +11.8       
21 07.06.11 300 (СЗ) 10 км  слаб. дождь  10/10 600 м 
[Sc]
+10.3 +8 86 +10  1009.2  -1  746  288           
00 08.06.11 320 (СЗ) 10 км  дождь  10/10 600 м 
[Cu med, cong]
+10.3 +9.3 93 +11  1008.5  -0.7  746  288           
03 08.06.11 290 (З) 10 км  дождь  10/10 600 м 
[Cu med, cong]
+10.5 +9.7 95 +13  1007.9  -0.6  745  287           
06 08.06.11 260 (З) 4000 м  дождь  10/10 300 м 
[Ns]
+10.8 +10 95 +12  1007.9  0.1  745  287      13     
09 08.06.11 210 (ЮЗ) >10 км  {дождь}  10/10 300 м 
[Frnb]
+12.1 +10.4 89 +15  1008.4  0.5  746  286           
12 08.06.11 200 (Ю) >10 км  {дождь}  8/6 1500 м средняя 
[Cu med, cong|Ac cast]
+15.5 +8.4 63 +16  1008.7  0.5  746  283           
15 08.06.11 120 (ЮВ) >10 км    3/1 1000 м средняя 
[Cu hum|Ac lent]
+15.8 +8.8 63 +17  1008.9  0.2  746  283           
18 08.06.11 060 (СВ) 10 км    8/6 600 м средняя 
[Sc diur, vesp|Ac cuf]
+14.8 +8.9 68 +15  1009  0.1  746  284    +16.1  10     
21 08.06.11 080 (В) 10 км    ясно 
+13 +9.5 79 +15  1008.8  -0.3  746  285           
00 09.06.11 070 (В) 10 км    10/10 600 м 
[Sc]
+12.9 +9.6 80 +14  1008.5  -0.3  746  285           
03 09.06.11 100 (В) >10 км    9/0 
[Sc]
+14.1 +10.1 77 +16  1008  -0.5  745  284           
06 09.06.11 110 (В) >10 км    9/0 средняя 
[Ac cast]
+15.9 +10.9 72 +19  1008.1  0.2  746  282  +12.4         
09 09.06.11 140 (ЮВ) >10 км    9/3 600 м средняя 
[Cu hum|Ac As]
+17.9 +10.2 61 +21  1008.4  0.4  746  280           
12 09.06.11 110 (В) >10 км    9/3 600 м средняя 
[Cu med, cong|Ac As]
+19.9 +9.9 52 +22  1007.6  -0.7  745  278           
15 09.06.11 010 (С) >10 км  {гроза, ливн. осадки}  9/9 600 м 
[Sc]
+18.8 +10.7 59 +22  1006.5  -1.1  745  279           
18 09.06.11 020 (С) 10 км    8/1 600 м средняя, верхняя 
[Sc diur, vesp|Ac cast|Ci fib]
+15.9 +12.1 78 +21  1006.7  745  281    +20.1  0.0     
21 09.06.11 050 (СВ) 10 км    4/0 средняя 
[Ac As]
+14 +11.8 87 +19  1005.7  -1.1  744  283           
00 10.06.11 070 (В) 10 км    9/8 1000 м средняя 
[Sc|Ac und]
+14.7 +9.9 73 +16  1005.2  -0.4  743  282           
03 10.06.11 070 (В) >10 км    ясно 
+15.9 +10.4 70 +19  1004.6  -0.6  743  281           
06 10.06.11 060 (СВ) >10 км    4/0 верхняя 
[Cc]
+19.9 +10.7 55 +23  1003.9  -0.5  743  277    +13.8       
09 10.06.11 050 (СВ) >10 км    6/6 600 м кучево-дожд. 
[Cb calv]
+21.5 +10.4 49 +23  1003.3  -0.5  742  275           
12 10.06.11 070 (В) >10 км    8/8 600 м кучево-дожд. 
[Cb calv]
+21.3 +12.3 56 +26  1002.4  -0.9  742  275           
15 10.06.11 100 (В) >10 км  гроза, ливневой дождь  10/9 600 м кучево-дожд. 
[Cb calv]
+19 +10.1 56 +21  1002  -0.5  741  277           
18 10.06.11 020 (С) 10 км  {гроза, ливн. осадки}  6/6 600 м 
[Sc]
+16.9 +13 78 +24  1001.5  -0.6  741  278    +22.7  0.4     
21 10.06.11 320 (СЗ) 4000 м  гроза, ливневой дождь  10/10 600 м кучево-дожд. 
[Cb cap]
+15.2 +13.4 89 +22  1001  -0.5  740  280           
00 11.06.11 тихо ()   10 км  {гроза, ливн. осадки}  9/9 600 м 
[Sc]
+14.8 +13.6 93 +21  1000.2  -0.8  740  280           
03 11.06.11 тихо ()   10 км  в посл. час ливневой дождь  4/0 средняя 
[Ac cast]
+16.4 +14.1 86 +24  999.5  -0.6  739  278           
06 11.06.11 тихо ()   >10 км  {ливн. осадки}  8/6 600 м кучево-дожд., средняя 
[Cb calv|Ac cuf]
+19 +14.7 76 +28  999.1  -0.3  739  275  +14.7       
09 11.06.11 240 (ЮЗ) >10 км  гроза, ливневой дождь  8/8 600 м кучево-дожд. 
[Cb calv]
+22.1 +13.3 57 +28  997.8  -1.2  738  273           
12 11.06.11 250 (З) 10 км  гроза, ливневой дождь [макс. диам. градин 7 мм]  10/10 600 м кучево-дожд. 
[Cb cap]
+17.6 +12.6 72 +23  998.5  0.5  739  277           
15 11.06.11 тихо ()   10 км  в посл. час ливневой дождь{гроза}  10/10 600 м кучево-дожд. 
[Cb cap]
+17.2 +14.8 86 +26  996.7  -1.8  737  276           
18 11.06.11 010 (С) 10 км  {гроза, ливн. осадки}  10/10 600 м кучево-дожд. 
[Cb cap]
+16.6 +13.6 82 +24  996.6  -0.1  737  277    +22.1  16     
21 11.06.11 020 (С) 3{12}  10 км    10/10 600 м 
[Sc diur, vesp]
+9.8 +7.8 87 +9  999.7  2.7  739  286           
00 12.06.11 030 (СВ) 2{10}  10 км    10/10 600 м 
[Sc]
+8.7 +5.6 81 +9  1000.6  0.8  740  288           
03 12.06.11 030 (СВ) >10 км    4/4 600 м 
[Sc]
+7.8 +1.1 63 +7  1001.9  1.2  741  290           
06 12.06.11 350 (С) >10 км    3/3 1000 м 
[Cu med, cong]
+11.2 +3.8 60 +11  1002.3  0.6  741  286  +7.5       
09 12.06.11 010 (С) >10 км    5/5 1000 м 
[Cu med, cong]
+13.7 +3.1 49 +14  1003  0.8  742  284           
12 12.06.11 010 (С) >10 км    6/4 1000 м средняя 
[Cu med, cong|Ac lent]
+15.4 +3.7 46 +16  1003.6  0.7  742  283           
15 12.06.11 020 (С) >10 км    6/3 1000 м средняя 
[Sc diur, vesp|Ac lent]
+14.6 +5.3 54 +15  1004.5  0.8  743  283           
18 12.06.11 040 (СВ) 10 км    ясно 
+12.3 +1.5 48 +14  1006  1.4  744  287    +15.6       
21 12.06.11 тихо ()   10 км    6/4 600 м средняя 
[Sc|Ac und]
+10 +2.2 58 +10  1006.7  0.6  744  289           
00 13.06.11 тихо ()   10 км    ясно 
+7.4 +2.1 69 +7  1008  1.2  745  292           
03 13.06.11 тихо ()   >10 км    ясно 
+10.5 +2 56 +11  1008.8  0.9  746  289           
06 13.06.11 280 (З) >10 км    5/5 600 м 
[Cu med, cong]
+13.2 +4 54 +14  1008.7  0.1  746  286  +6.8         
09 13.06.11 290 (З) >10 км  в посл. час ливневой дождь  9/9 600 м кучево-дожд. 
[Cb calv]
+13.7 +3.2 49 +14  1009  0.3  746  286           
12 13.06.11 290 (З) 2{10}  >10 км  {ливн. осадки}  9/9 600 м 
[Sc]
+14.9 +3.5 46 +16  1009  746  285           
15 13.06.11 320 (СЗ) >10 км    8/8 600 м 
[Sc]
+15.4 +3.7 46 +17  1008.9  746  284           
18 13.06.11 030 (СВ) 10 км    8/6 600 м средняя 
[Sc|Ac lent]
+13.3 +3.5 51 +15  1009.9  0.9  747  286    +15.5  0.0     
21 13.06.11 тихо ()   10 км    8/8 600 м 
[Sc]
+12.4 +5.1 61 +12  1010.6  0.6  747  287           
00 14.06.11 тихо ()   10 км    4/4 600 м 
[Sc]
+10.4 +5.1 70 +10  1011.5  0.8  748  289           
03 14.06.11 060 (СВ) >10 км    ясно 
+12.7 +4.7 58 +14  1013.8  2.3  750  288           
06 14.06.11 060 (СВ) >10 км    4/4 600 м 
[Cu hum]
+14.7 +3.5 47 +16  1013.8  0.1  750  286  +10.4         
09 14.06.11 030 (СВ) >10 км    3/3 600 м 
[Cu hum]
+16.9 +3.6 41 +18  1013.8  0.1  750  284           
12 14.06.11 340 (С) >10 км    3/3 600 м 
[Cu hum]
+18 +2.5 35 +19  1013.7  750  283           
15 14.06.11 320 (СЗ) >10 км    4/1 600 м средняя 
[Sc|Ac lent]
+15.4 -0.5 34 +17  1013  -0.8  749  286           
18 14.06.11 тихо ()   10 км    9/0 средняя 
[Ac cast]
+14.7 +6 56 +15  1013.1  749  285    +18.2       
21 14.06.11 110 (В) 10 км    10/10 600 м 
[Sc]
+14.1 +5.4 56 +15  1012.8  -0.3  749  286           
00 15.06.11 110 (В) 10 км  слаб. дождь  10/10 600 м 
[Sc]
+12.8 +6.3 65 +13  1012.3  -0.6  749  287           
03 15.06.11 110 (В) 10 км  {дождь}  10/10 600 м 
[Sc]
+12.6 +9.5 81 +14  1011.1  -1.1  748  286           
06 15.06.11 150 (ЮВ) >10 км  {дождь}  10/4 600 м средняя 
[Sc|Ac lent]
+15.8 +12.9 83 +22  1010.5  -0.4  747  282  +11.7       
09 15.06.11 120 (ЮВ) 10 км  слаб. дождь{ливн. осадки}  10/10 300 м 
[Frnb]
+15.8 +14.8 94 +25  1010.1  -0.4  747  281           
12 15.06.11 170 (Ю) >10 км  в посл. час дождь{ливн. осадки}  10/10 600 м 
[Sc]
+17.4 +14.6 84 +26  1008.7  -1.3  746  280           
15 15.06.11 180 (Ю) 10 км  слаб. дождь  10/10 600 м 
[Sc]
+16.2 +15.2 94 +27  1007.8  -0.9  745  280           
18 15.06.11 тихо ()   10 км  {дождь}  9/9 600 м 
[Sc]
+16.2 +15 93 +25  1007.7  -0.1  745  280    +17.6     
21 15.06.11 тихо ()   10 км    4/4 600 м 
[Sc]
+15 +13.9 93 +22  1007.6  -0.2  745  282           
00 16.06.11 320 (СЗ) 10 км    10/10 600 м 
[Sc]
+14.8 +13.2 90 +22  1008.4  0.8  746  282           
03 16.06.11 330 (СЗ) >10 км    10/10 600 м 
[Sc]
+13.6 +11.5 87 +17  1009.1  0.6  746  284           
06 16.06.11 300 (СЗ) >10 км    9/8 1000 м средняя 
[Cu Sc|Ac cast]
+15.6 +10.7 73 +18  1009.7  0.7  747  283  +13.6         
09 16.06.11 270 (З) >10 км    10/6 600 м кучево-дожд., средняя 
[Cb calv|Ac As]
+15.7 +10.2 70 +17  1010.4  0.7  747  283           
12 16.06.11 280 (З) >10 км    9/6 1000 м средняя 
[Cu Sc|Ac As]
+16.8 +9.1 60 +18  1011.2  0.9  748  282           
15 16.06.11 300 (СЗ) >10 км    10/5 1000 м средняя, верхняя 
[Cu Sc|Ac cast|Ci]
+16.8 +8.9 60 +18  1011.2  -0.1  748  282           
18 16.06.11 тихо ()   10 км    3/0 средняя, верхняя 
[Ac cast|Ci fib]
+14.9 +9.7 71 +16  1011.6  0.3  748  284    +17.2       
21 16.06.11 тихо ()   10 км  в посл. час ливневой дождь  10/10 600 м 
[Sc]
+13.4 +9.8 79 +14  1011.2  -0.4  748  285           
00 17.06.11 140 (ЮВ) 10 км  {ливн. осадки, дождь}  8/8 600 м средняя 
[Sc diur, vesp|Ac cuf]
+12.8 +11.5 92 +16  1010.2  -1  747  285           
03 17.06.11 тихо ()   >10 км  {ливн. осадки}  10/10 600 м 
[Sc diur, vesp]
+14.6 +12.8 89 +20  1009.1  -1  746  283           
06 17.06.11 140 (ЮВ) >10 км  {ливн. осадки}  8/0 средняя 
[Ac cast]
+17.4 +14.6 84 +27  1008.1  -0.9  746  279  +12.6       
09 17.06.11 210 (ЮЗ) >10 км    9/8 600 м средняя 
[Sc|Ac cast]
+19 +14.2 74 +27  1006.8  -1.2  745  278           
12 17.06.11 290 (З) >10 км  в посл. час гроза{ливн. осадки}  9/3 600 м кучево-дожд., средняя 
[Cb calv|Ac As]
+20.2 +15.7 75 +30  1005.7  -1  744  276           
15 17.06.11 260 (З) 10 км  {ливн. осадки}  9/9 600 м 
[Sc]
+18.9 +12.3 65 +25  1005.2  -0.6  744  278           
18 17.06.11 250 (З) 10 км  {ливн. осадки}  10/4 600 м средняя, верхняя 
[Sc diur, vesp|Ac cast|Ci sp]
+16.4 +12.4 77 +22  1005.2  -0.1  743  280    +20.5  0.3     
21 17.06.11 290 (З) 10 км    8/0 средняя 
[Ac cast]
+14.5 +11.3 81 +19  1005.5  0.1  744  282           
00 18.06.11 300 (СЗ) 10 км    9/8 1000 м средняя 
[Sc|Ac cast]
+13.4 +10.3 82 +15  1005.7  0.2  744  284           
03 18.06.11 290 (З) >10 км    9/6 1000 м средняя 
[Sc diur, vesp|Ac lent]
+13 +10.3 84 +15  1005.9  0.2  744  284           
06 18.06.11 280 (З) >10 км    9/9 600 м кучево-дожд. 
[Cb calv]
+14.8 +9.8 72 +16  1007.3  1.5  745  283  +13         
09 18.06.11 300 (СЗ) >10 км  слаб. ливневой дождь  9/9 600 м кучево-дожд. 
[Cb calv]
+14.5 +10.9 79 +16  1008  0.6  745  283           
12 18.06.11 310 (СЗ) >10 км  {ливн. осадки}  8/8 600 м 
[Cu hum]
+17.3 +8.3 55 +18  1008.5  0.7  746  281           
15 18.06.11 300 (СЗ) >10 км    8/3 600 м средняя, верхняя 
[Sc diur, vesp|Ac lent|Ci fib]
+18.4 +8.8 54 +19  1008.6  0.1  746  280           
18 18.06.11 290 (З) 10 км    10/0 средняя 
[Ac As]
+16.9 +9.7 63 +19  1009  0.4  746  281    +19.2  0.0     
21 18.06.11 280 (З) 10 км    5/0 средняя 
[Ac cast]
+15.3 +10.2 72 +19  1009.4  0.3  747  283           
00 19.06.11 310 (СЗ) 10 км    ясно 
+13.6 +9.1 74 +15  1009.5  747  285           
03 19.06.11 310 (СЗ) >10 км    ясно 
+15 +9.2 68 +16  1010.3  0.9  747  284           
06 19.06.11 310 (СЗ) >10 км    3/0 верхняя 
[Ci fib]
+17.8 +9 56 +19  1010  -0.2  747  281  +13.2         
09 19.06.11 320 (СЗ) >10 км    8/1 600 м верхняя 
[Cu hum|Ci fib]
+20.5 +7 42 +21  1009.6  -0.3  747  279           
12 19.06.11 300 (СЗ) >10 км    6/3 600 м верхняя 
[Cu med, cong|Ci fib]
+21.7 +8.2 42 +22  1009.2  -0.3  747  277           
15 19.06.11 290 (З) >10 км    8/5 600 м верхняя 
[Sc diur, vesp|Ci fib]
+21.8 +8.6 43 +22  1008.8  -0.4  746  277           
18 19.06.11 280 (З) 10 км    8/0 верхняя 
[Ci fib]
+19.4 +11.6 61 +24  1008.9  746  279    +22.4       
21 19.06.11 тихо ()   10 км    4/0 средняя 
[Ac cast]
+15 +12.5 85 +20  1009.6  0.5  747  283           
00 20.06.11 140 (ЮВ) 10 км    6/0 средняя 
[Ac cast]
+14.6 +11.2 80 +19  1009.6  747  283           
03 20.06.11 тихо ()   >10 км    10/3 600 м средняя 
[Sc|Ac und]
+17.6 +11.4 67 +21  1009.6  0.1  747  281           
06 20.06.11 120 (ЮВ) >10 км    4/0 средняя 
[Ac lent]
+20.6 +12.9 61 +26  1009.5  0.1  747  277  +13.6         
09 20.06.11 180 (Ю) >10 км    8/3 600 м средняя 
[Cu med, cong|Ac cast]
+21.5 +13.6 61 +28  1009.4  -0.1  747  276           
12 20.06.11 170 (Ю) >10 км    3/3 1000 м средняя 
[Cu hum|Ac lent]
+22.5 +7.6 38 +23  1009.4  747  277           
15 20.06.11 160 (Ю) >10 км    3/0 верхняя 
[Ci fib]
+22.1 +9.3 44 +22  1008.3  -1.1  746  276           
18 20.06.11 160 (Ю) 10 км    6/0 средняя 
[Ac cast]
+19.6 +8.8 50 +21  1008.6  0.2  746  279    +22.8       
21 20.06.11 тихо ()   10 км    8/0 средняя 
[Ac cast]
+19 +9.1 53 +19  1008.1  -0.5  746  279           
00 21.06.11 130 (ЮВ) 10 км    10/10 600 м 
[Sc]
+18.2 +10.8 62 +22  1008.2  746  280           
03 21.06.11 140 (ЮВ) >10 км    10/0 средняя 
[Ac cast]
+18.7 +16.5 87 +32  1008  -0.1  746  278           
06 21.06.11 150 (ЮВ) >10 км  {дождь}  8/1 600 м средняя, верхняя 
[Cu med, cong|Ac cast|Cc]
+21.9 +17 74 +34  1007.9  746  274  +18    0.0     
09 21.06.11 150 (ЮВ) >10 км    8/0 средняя 
[Ac cast]
+23.9 +17.7 68 +38  1007.5  -0.3  745  272           
12 21.06.11 180 (Ю) >10 км    10/5 600 м средняя 
[Cu Sc|As trans]
+24.9 +18.3 67 +40  1006.3  -1.2  745  271           
15 21.06.11 170 (Ю) >10 км  {гроза, ливн. осадки}  9/0 средняя 
[Ac As]
+22.9 +18 74 +37  1005.8  -0.5  744  273           
18 21.06.11 130 (ЮВ) 10 км  в посл. час дождь{ливн. осадки}  10/5 600 м средняя 
[Sc|Ac cast]
+18.6 +16.3 86 +31  1005.2  0.2  744  277    +26.7  0.0     
21 21.06.11 110 (В) 10 км    9/0 средняя 
[Ac cast]
+18.3 +15.6 84 +30  1005.9  -0.3  744  278           
00 22.06.11 010 (С) 72  0200 м  в посл. час ливневой дождь  1/0 средняя 
[Frnb|Ac cast]
+15.8   1004.9  -1.1  743             
03 22.06.11 100 (В) >10 км  в посл. час ливневой дождь  10/8 300 м кучево-дожд., средняя 
[Cb cap|Ac cast]
+17.2 +15.8 91 +28  1003  -1.9  742  278           
06 22.06.11 140 (ЮВ) >10 км  {ливн. осадки}  9/0 средняя 
[Ac cast]
+20.6 +17.5 82 +34  1002.3  -0.5  741  274  +17.1       
09 22.06.11 160 (Ю) >10 км    10/6 600 м кучево-дожд., средняя 
[Cb cap|Ac lent]
+21.7 +17.3 76 +35  1001.9  -0.4  741  273           
12 22.06.11 120 (ЮВ) >10 км  {гроза, ливн. осадки}  10/6 600 м кучево-дожд., средняя 
[Cb cap|Ac lent]
+19.7 +18.1 90 +36  1002.1  0.1  741  274           
15 22.06.11 290 (З) >10 км  в посл. час ливневой дождь  10/10 600 м кучево-дожд. 
[Cb cap]
+19 +17 88 +33  1002.1  741  275           
18 22.06.11 150 (ЮВ) 10 км  {ливн. осадки}  10/10 300 м 
[Frnb]
+17.1 +16.3 95 +30  1002.4  0.2  741  278    +22.1     
21 22.06.11 тихо ()   10 км  слаб. дождь  10/6 600 м средняя 
[Sc|Ac As]
+16.2 +14.6 90 +24  1002.3  -0.1  741  279           
00 23.06.11 070 (В) 10 км  слаб. дождь  10/10 300 м 
[Frnb|Ns]
+16.6 +15.6 94 +28  1001.9  -0.4  741  278           
03 23.06.11 060 (СВ) 10 км  слаб. дождь  10/10 300 м 
[Frnb]
+17.1 +16.1 94 +30  1001.9  741  277           
06 23.06.11 050 (СВ) 10 км  слаб. дождь  10/10 600 м 
[Sc]
+17.2 +16 93 +29  1002.4  0.5  741  278  +16       
09 23.06.11 080 (В) 10 км  слаб. дождь  10/10 300 м 
[Frnb|Ns]
+16.4 +15.7 96 +27  1003.6  1.2  742  279           
12 23.06.11 120 (ЮВ) >10 км  {дождь}  9/9 600 м 
[Sc]
+18 +15.8 87 +29  1003.6  0.1  742  277           
15 23.06.11 010 (С) 10 км  гроза, ливневой дождь  10/10 600 м кучево-дожд. 
[Cb cap]
+19.1 +15.9 82 +31  1003.9  0.3  743  276           
18 23.06.11 060 (СВ) >10 км  {гроза, ливн. осадки}  6/3 600 м средняя 
[Sc diur, vesp|Ac lent]
+16.7 +13.9 84 +25  1005.4  1.4  744  280    +19.5     
21 23.06.11 080 (В) 10 км    3/3 600 м 
[Sc]
+16.1 +14 87 +24  1005.8  0.3  744  280           
00 24.06.11 070 (В) 10 км    6/0 средняя 
[Ac cast]
+14.8 +13.2 90 +22  1005.9  0.1  744  282           
03 24.06.11 040 (СВ) >10 км    ясно 
+15.3 +11.8 80 +21  1006.3  0.4  744  282           
06 24.06.11 020 (С) >10 км    10/9 300 м средняя 
[Sc|Ac cast]
+16.3 +13.3 82 +24  1006.5  0.3  744  280  +14.3    0.0     
09 24.06.11 070 (В) >10 км    8/5 600 м кучево-дожд., средняя, верхняя 
[Cb calv|Ac cast|Ci fib]
+18.1 +13.5 75 +25  1006.9  0.5  745  279           
12 24.06.11 060 (СВ) 4000 м  дождь  9/8 200 м средняя 
[Frnb|Ac cast]
+15.8 +12.3 80 +20  1007.4  0.4  745  281           
15 24.06.11 070 (В) >10 км  {дождь}  8/5 600 м кучево-дожд., средняя 
[Cb calv|Ac cast]
+19.2 +14.4 74 +28  1007.5  0.3  745  278           
18 24.06.11 060 (СВ) 10 км  в посл. час гроза{ливн. осадки}  10/3 600 м кучево-дожд., средняя 
[Cb cap|As op]
+15.4 +12.5 83 +22  1008.1  0.4  746  282    +19.7     
21 24.06.11 050 (СВ) 10 км    ясно 
+14.2 +12.7 91 +20  1008.4  0.2  746  283           
00 25.06.11 040 (СВ) >10 км    ясно 
+14.2 +12.7 91 +20  1008.4  746  283           
03 25.06.11 тихо ()   >10 км    ясно 
+15.5 +13.5 88 +22  1008.8  0.5  746  282           
06 25.06.11 060 (СВ) >10 км    6/1 600 м верхняя 
[Cu hum|Ci fib]
+20.1 +15.4 74 +30  1008.3  -0.2  746  277  +13.8       
09 25.06.11 040 (СВ) >10 км    5/5 600 м 
[Cu med, cong]
+21.9 +13.4 58 +28  1007.9  -0.4  746  275           
12 25.06.11 030 (СВ) >10 км    4/4 600 м 
[Cu med, cong]
+23.1 +13.7 55 +30  1007.1  -0.8  745  274           
15 25.06.11 050 (СВ) 10 км  слаб. ливневой дождь{гроза}  9/1 600 м кучево-дожд., средняя 
[Cb cap|Ac As]
+19.9 +15 73 +30  1006.9  -0.3  745  277           
18 25.06.11 050 (СВ) 10 км  {гроза, ливн. осадки}  3/0 верхняя 
[Ci fib]
+17.4 +13.9 80 +25  1007.5  0.5  745  279    +24     
21 25.06.11 030 (СВ) 10 км    9/0 средняя 
[Ac cast]
+16.8 +14.2 85 +25  1007.1  -0.4  745  280           
00 26.06.11 030 (СВ) 10 км    1/1 600 м 
[Sc]
+16.3 +14.7 90 +25  1007.1  745  280           
03 26.06.11 050 (СВ) >10 км    8/8 600 м 
[Cu med, cong]
+16.8 +15.1 90 +26  1007.4  0.3  745  280           
06 26.06.11 060 (СВ) >10 км    3/3 600 м 
[Cu hum]
+21.7 +15 66 +31  1007.5  0.3  745  275  +16.1    0.0     
09 26.06.11 070 (В) >10 км    4/3 600 м средняя 
[Cu hum|Ac lent]
+23.5 +15.2 60 +33  1007.6  0.1  745  273           
12 26.06.11 070 (В) >10 км  в посл. час дождь  10/10 600 м 
[Sc diur, vesp]
+23.6 +15.7 61 +34  1008  0.4  746  273           
15 26.06.11 060 (СВ) >10 км    9/9 600 м 
[Sc]
+23.9 +15.3 59 +33  1008.1  0.1  746  273           
18 26.06.11 060 (СВ) 10 км    9/0 средняя 
[Ac cast]
+21.7 +13.4 59 +28  1008.2  0.1  746  276    +24  0.0     
21 26.06.11 060 (СВ) 10 км    5/0 верхняя 
[Ci fib]
+19.2 +12.8 66 +26  1008.3  746  278           
00 27.06.11 060 (СВ) 10 км    5/0 верхняя 
[Ci fib]
+18 +12.2 69 +23  1008.8  0.4  746  280           
03 27.06.11 070 (В) >10 км    ясно 
+19.2 +13.2 68 +26  1009.8  1.1  747  279           
06 27.06.11 060 (СВ) >10 км    ясно 
+22.1 +14.7 63 +30  1010.2  0.5  747  276  +17.5         
09 27.06.11 080 (В) >10 км    6/6 600 м 
[Cu med, cong]
+23.3 +14.3 57 +31  1011.2  748  275           
12 27.06.11 120 (ЮВ) >10 км    8/8 600 м 
[Cu med, cong]
+25.1 +16.5 59 +37  1011.5  0.4  748  273           
15 27.06.11 080 (В) >10 км    3/3 600 м 
[Cu med, cong]
+24.3 +14 53 +31  1012  0.5  749  274           
18 27.06.11 090 (В) 10 км    ясно 
+22.1 +15.6 67 +32  1013  0.9  749  276    +25.5       
21 27.06.11 090 (В) 10 км    ясно 
+20.1 +14.8 72 +28  1014.1  750  279           
00 28.06.11 100 (В) 10 км    ясно 
+19.2 +14.4 74 +29  1015.2  751  280           
03 28.06.11 090 (В) >10 км    ясно 
+20.2 +14.4 69 +28  1015.3  0.2  751  279           
06 28.06.11 110 (В) >10 км    ясно 
+23.9 +15.1 58 +33  1015.5  0.3  751  275  +19         
09 28.06.11 100 (В) >10 км    3/3 600 м 
[Cu med, cong]
+25.5 +16.1 56 +36  1015.6  0.2  752  274           
12 28.06.11 080 (В) >10 км    3/3 600 м 
[Cu med, cong]
+26.5 +15.5 51 +36  1015.4  -0.1  751  273           
15 28.06.11 170 (Ю) >10 км    ясно 
+26.2 +15 50 +35  1014.8  -0.6  751  273           
18 28.06.11 тихо ()   10 км    ясно 
+22.3 +16.9 71 +34  1015.4  0.4  751  276    +26.9       
21 28.06.11 тихо ()   10 км    ясно 
+20.3 +16.5 79 +32  1015.8  0.3  752  278           
00 29.06.11 тихо ()   10 км    ясно 
+17.8 +15.8 88 +28  1016.6  0.5  752  281           
03 29.06.11 тихо ()   >10 км    ясно 
+22.1 +17.1 73 +35  1016.5  0.2  752  277           
06 29.06.11 300 (СЗ) >10 км    3/3 600 м 
[Cu med, cong]
+25.5 +17.2 60 +38  1016.6  0.2  752  273  +17.4         
09 29.06.11 тихо ()   >10 км    9/3 600 м средняя 
[Cu med, cong|Ac cast]
+26.8 +15.3 49 +36  1016.4  -0.1  752  273           
12 29.06.11 030 (СВ) 1{10}  >10 км    9/3 600 м средняя 
[Cu Sc|Ac As]
+24.2 +16.6 63 +36  1016.5  752  275           
15 29.06.11 330 (СЗ) >10 км    3/0 средняя 
[Ac lent]
+27 +16.6 53 +38  1015.9  -0.4  752  272           
18 29.06.11 050 (СВ) 10 км    4/0 средняя 
[Ac cast]
+22.9 +17.1 70 +35  1016.7  0.5  752  276    +28       
21 29.06.11 тихо ()   10 км    ясно 
+20.9 +16.3 75 +32  1017.4  0.6  753  278           
00 30.06.11 060 (СВ) 10 км    ясно 
+18.8 +16.1 84 +31  1017.9  0.4  753  280           
03 30.06.11 030 (СВ) >10 км    ясно 
+18.7 +14.8 78 +28  1018.7  0.8  754  281           
06 30.06.11 070 (В) >10 км    3/3 600 м 
[Cu hum]
+21.6 +15.8 70 +32  1019.1  0.5  754  278  +18.1         
09 30.06.11 060 (СВ) >10 км    3/3 600 м 
[Cu hum]
+22.9 +13.4 55 +29  1019.3  0.3  754  278           
12 30.06.11 070 (В) >10 км    1/1 600 м 
[Cu hum]
+23.5 +12.1 49 +27  1018.8  -0.5  754  277           
15 30.06.11 020 (С) >10 км    1/0 средняя 
[Ac lent]
+24.5 +8.5 36 +25  1018.3  -0.5  753  277           
18 30.06.11 020 (С) 10 км    ясно 
+20.6 +10.1 51 +22  1018.7  0.2  754  281    +25       
21 30.06.11 070 (В) 10 км    ясно 
+19.2 +9.2 52 +20  1019  0.3  754  282           
00 01.07.11 080 (В) 10 км    ясно 
+17 +9.1 60 +18  1019.5  0.4  754  284           
03 01.07.11 080 (В) >10 км    ясно 
+19 +10.7 59 +23  1020.5  1.1  755  282           
06 01.07.11 110 (В) >10 км    ясно 
+21.5 +10.8 51 +24  1020.6  0.2  755  280  +16.7         
09 01.07.11 090 (В) >10 км    ясно 
+23.4 +11.1 46 +26  1020.3  -0.2  755  278           
12 01.07.11 120 (ЮВ) >10 км    ясно 
+25.3 +10.9 40 +28  1019.2  -1  754  276           
15 01.07.11 090 (В) >10 км    ясно 
+25.7 +13.5 47 +32  1018.1  -1.1  753  275           
18 01.07.11 100 (В) 10 км    ясно 
+23 +14.2 58 +30  1017.1  -1.1  752  277    +25.8       
21 01.07.11 тихо ()   10 км    ясно 
+19.8 +14.1 70 +27  1017.2  -0.1  752  280           
00 02.07.11 130 (ЮВ) 10 км    ясно 
+19.4 +13.1 67 +26  1016.9  -0.3  752  280           
03 02.07.11 тихо ()   >10 км    ясно 
+20.1 +14.5 70 +28  1017.2  0.3  752  279           
Время (UTC), дата Ветер
(°,м/с) 
Видим.   Явления Облачность Т
(°С)
Тd
(°С)
f(%) Тe
(°С)
Pmin
(гПа)
dP
(гПа)
Po
(мм)
O2
(г/м3)
Тmin Tmax R s Состояние
почвы